Regional Weather Roundup
Issued by NWS

Home | Current Version | Previous Version | Text Only | Print | Product List | Glossary On
Versions: 1 2 3 4 5 6 7 8 9 10 11 12 13 14 15 16 17 18 19 20 21 22 23 24 25 26 27 28 29 30 31 32 33 34 35 36 37 38 39 40 41 42 43 44 45 46 47 48 49 50
000
ASUS43 KLSX 241607
RWRMO

WEATHER SUMMARY FOR MISSOURI
NATIONAL WEATHER SERVICE SPRINGFIELD MO
1100 AM CDT SUN MAY 24 2015

NOTE: "FAIR" INDICATES FEW OR NO CLOUDS BELOW 12,000 FEET WITH NO
       SIGNIFICANT WEATHER AND/OR OBSTRUCTIONS TO VISIBILITY.
       CURRENT SKY AND/OR WEATHER CONDITIONS ARE NOT AVAILABLE FOR
       CHILLICOTHE AND FARMINGTON.

MOZ001>031-035>038-043-044-053-054-241700-
...NORTHERN AND WESTERN MISSOURI...

CITY           SKY/WX    TMP DP  RH WIND       PRES   REMARKS
KANSAS CTY INT CLOUDY    67  64  90 S12       29.90R
KANSAS C DTWN  CLOUDY    69  63  81 S9        29.90R
LEE`S SUMMIT   CLOUDY    69  63  81 S7        29.91S
ST JOSEPH      PTSUNNY   70  65  84 SW9       29.88R
CHILLICOTHE      N/A     67  64  90 S8        29.92R
KIRKSVILLE     CLOUDY    69  65  86 S14G23    29.93F

$$
MOZ066>068-077>081-088>096-101>105-241700-
...SOUTHWEST MISSOURI...

CITY           SKY/WX    TMP DP  RH WIND       PRES   REMARKS
SPRINGFIELD    CLOUDY    75  66  73 S22G32    29.92S
JOPLIN         LGT RAIN  67  66  97 NW7       29.90F FOG

$$
MOZ032>034-039>042-045>050-055>058-069>072-241700-
...CENTRAL MISSOURI...

CITY           SKY/WX    TMP DP  RH WIND       PRES   REMARKS
COLUMBIA       CLOUDY    75  66  73 S18       29.95F
JEFFERSON CITY PTSUNNY   76  65  68 SE10      29.95F
ROLLA          CLOUDY    74  66  76 S18G28    29.97F
SEDALIA        CLOUDY    71  66  84 S12G22    29.92F
WHITEMAN AFB   CLOUDY    70  66  88 S14       29.90S
WARRENSBURG    CLOUDY    64  63  94 S6        29.92R
OSAGE BEACH    CLOUDY    75  64  69 S15       29.95S

$$
MOZ051-052-059>065-241700-
...EAST CENTRAL MISSOURI...

CITY           SKY/WX    TMP DP  RH WIND       PRES   REMARKS
ST LOUIS INTL  PTSUNNY   79  63  57 S10G20    30.03F
SPIRIT OF STL  PTSUNNY   79  65  62 S13G24    30.00F
ST CHARLES     CLOUDY    75  62  64 S14       30.02F

$$
MOZ072>076-082>087-097>100-106>115-241700-
...SOUTH CENTRAL AND SOUTHEAST MISSOURI...

CITY           SKY/WX    TMP DP  RH WIND       PRES   REMARKS
CAPE GIRARDEAU MOSUNNY   79  65  62 S18G26    30.09F
FARMINGTON     PTSUNNY   77  64  65 S20G28    30.10S
POPLAR BLUFF   CLOUDY    80  64  58 S16G26    30.05F
WEST PLAINS    CLOUDY    71  66  84 S10G20    30.03F

$$



USA.gov is the U.S. government's official web portal to all federal, state and local government web resources and services.